Lid_Strength_Index
12 12 12 12 12 12 12 12 12 16 16 15 14 13 13 12 12 11 10 9 8 8 8 8 8 7 7 7 8 7 8 8 8 8 7 7 7 7
14 13 13 13 13 13 13 13 13 13 15 15 14 14 13 13 13 13 12 11 9 9 9 9 9 9 9 9 9 9 9 9 9 8 8 7 7 7
15 14 15 14 14 14 14 14 14 13 15 16 15 14 14 14 14 13 12 12 10 9 9 9 9 9 9 9 9 9 9 9 9 8 8 7 7 7
16 16 16 16 14 14 14 14 14 14 14 16 15 15 15 14 14 14 14 13 11 10 9 9 10 10 10 10 10 10 10 9 9 9 8 8 8 7
16 16 16 16 16 15 14 14 14 15 14 15 16 15 15 15 14 14 13 13 12 11 11 11 11 11 10 10 10 10 10 9 9 9 9 8 8 8
17 16 16 16 15 16 15 15 15 15 14 15 15 16 15 15 14 14 14 13 13 13 12 12 12 11 11 10 10 10 9 9 8 8 8 8 8 8
17 17 16 16 15 15 16 15 15 15 15 15 16 16 15 15 15 14 14 14 14 13 13 12 12 12 12 12 11 10 9 9 9 8 8 8 8 8
17 15 15 13 13 13 13 14 14 15 15 15 16 16 15 15 14 14 14 15 15 12 13 13 12 12 12 11 11 10 10 9 9 8 8 8 8 8
15 15 15 14 13 13 12 12 12 13 14 14 15 15 15 14 14 15 15 14 14 13 13 14 12 13 11 12 11 10 9 9 9 9 9 8 8 7
15 15 14 14 14 14 14 15 15 15 14 14 14 14 14 14 14 13 13 13 13 13 12 14 12 13 12 11 11 9 9 9 9 9 9 8 8 7
15 15 15 15 13 13 15 15 15 14 13 12 12 12 12 12 12 12 13 14 14 14 12 13 13 13 12 11 10 9 10 9 9 9 8 8 8 8
16 15 13 15 13 13 15 15 16 15 14 13 12 12 12 11 11 12 13 14 14 14 13 13 13 13 14 12 10 10 10 9 9 9 9 9 8 8
16 16 15 12 12 13 14 15 15 14 13 14 15 15 15 14 13 13 12 13 14 14 12 12 13 13 13 13 11 11 11 10 10 10 10 9 8 8
15 15 14 11 12 12 14 13 12 13 14 15 15 15 15 15 14 13 13 13 12 13 12 12 13 13 14 15 15 12 11 11 11 11 11 10 9 9
14 14 12 11 11 11 12 11 11 14 14 15 15 15 14 14 14 14 13 13 13 13 13 13 13 13 13 15 15 14 14 12 12 11 11 11 10 10
13 13 12 11 11 12 11 11 13 13 14 14 14 14 14 14 14 13 14 14 14 14 14 13 13 14 15 14 15 15 14 15 12 12 11 10 10 9
13 14 14 14 14 15 14 14 14 13 13 14 14 14 14 14 14 13 14 14 15 15 15 14 14 14 14 14 16 15 14 13 12 11 11 11 11 10
14 15 15 14 14 14 14 15 15 13 13 14 14 14 14 14 14 14 14 15 15 15 15 15 15 16 16 15 12 14 13 13 12 12 12 13 13 11
14 14 14 14 14 14 14 14 14 14 13 13 13 14 14 14 13 14 14 14 15 15 15 15 16 17 19 19 14 11 13 13 13 13 13 13 13 12
12 13 14 13 14 14 15 14 14 14 14 14 14 14 14 14 14 14 14 15 15 15 16 15 16 16 17 17 16 14 11 13 13 14 14 12 12 10
12 13 12 13 13 14 14 14 14 14 14 14 14 14 14 14 15 14 14 13 14 16 17 16 14 13 15 16 17 16 14 12 12 13 13 13 14 13
11 12 13 13 13 14 14 14 15 14 13 14 13 13 13 14 15 15 15 15 15 14 15 14 14 15 15 17 17 17 16 14 13 12 11 11 14 16
11 11 12 12 13 13 13 14 14 14 14 13 13 13 14 15 14 14 14 15 15 15 15 16 16 15 16 16 16 16 16 16 15 15 14 11 11 10